NOAA 17 DEB

Satellite information

Favourite Embed

Satellite Type and Status

DEBRISIN ORBIT

Key statistics

Satellite NOAA 17 DEB at a glance.

Uptime

8353

Days in orbit

Revolutions

≈ 14.5

Per day

Orbit

SSO

Sun Synchronous Orbit

Inclination

98.7

Latest

Satellite identification and parameters

Extended collection of information and parameters for NOAA 17 DEB.

Object identification

Identified? True

Debris? True

Object name: NOAA 17 DEB

International designator: 2002-032CN

Object number (NORAD): 48753

Object ID (CCSDS): 48753

Country: UNITED STATES OF AMERICA (US)

Current information (Y/N): Y

RCS size: SMALL

Orbital parameters

Period: 99.31 minutes

Inclination: 98.7265 deg

SMA: 7103.767 km

Apoapsis: 743.502 km

Periapsis: 707.761 km

RAAN: 94.2496 deg

Eccentricy: 0.0025156

Argument of periapsis: 350.2414 deg

Mean anomaly: 9.8287 deg

Mean motion: 14.50005791 rev/day

Mean motion (dot): 0.00013518 rev/day2

B* drag term: 0.0034823 1/REarth

Two-line elements (TLE)

Creation date: May 6, 2025, 3:54 a.m.

Reference frame: TEME

Reference center: EARTH

Epoch: May 5, 2025, 8:44 p.m. UTC

TLE line 0: 0 NOAA 17 DEB

TLE line 1: 1 48753U 02032CN 25125.86414036 .00013518 00000-0 34823-2 0 9991

TLE line 2: 2 48753 98.7265 94.2496 0025156 350.2414 9.8287 14.50005791214315

Live tracking on map

Real-time ground track for satellite NOAA 17 DEB.

In-orbit conjunctions

A list of the most updated potential collisions computed for object NOAA 17 DEB.

Target Orbit TCA Probability of collision Miss distance Type
COSMOS 304 LEO 2025-04-18 09:10:30 0.0001405971 648.0 (m) PAYLOAD
IRIDIUM 71 LEO 2024-12-17 17:38:25 0.0001417571 624.0 (m) PAYLOAD
COSMOS 2251 DEB LEO 2024-09-26 01:09:11 0.0008042533 108.0 (m) DEBRIS

Associated space launch

NOAA M carried weather imagers and microwave and infrared sounders, as well as a SARSAT search-and-rescue package. It had an on-orbit mass of 1475 kg.

NOAA 17 DEB was lifted into orbit during the mission ‘Titan II SLV | NOAA 17’, on board a Titan II SLV space rocket.

The launch took place on June 24, 2002, 6:23 p.m. from Space Launch Complex 4W.

For more information about the launch, click the button.

Launch to space Titan II SLV | NOAA 17
Titan II SLV | NOAA 17

Agency: N/A

Status: Launch Successful

Launch date: June 24, 2002, 6:23 p.m. UTC

Rocket: Titan II SLV

Launch pad: Space Launch Complex 4W

Location: Vandenberg SFB, CA, USA

...

Latest news about this satellite

There are no fresh news available about this satellite. Check back as we update our databases every day.


Newsletter sign-up

Weekly statistics, charts and insights to help you stay on top of the space industry.